Weather History for KFFM - February, 2013

Change the Weather History Date:

Sunday, February 10, 2013

  Actual Average Record
Temperature  
Mean Temperature 27 °F -  
Max Temperature 30 °F 20 °F 41 °F (1987)
Min Temperature 24 °F 1 °F -25 °F (1949)
Degree Days  
Heating Degree Days 38    
Moisture  
Dew Point 26 °F    
Average Humidity 93    
Maximum Humidity 100    
Minimum Humidity 86    
Precipitation  
Precipitation 0.16 in - - ()
Sea Level Pressure  
Sea Level Pressure 29.57 in    
Wind  
Wind Speed 11 mph (ENE)    
Max Wind Speed 22 mph    
Max Gust Speed 34 mph    
Visibility 2 miles    
Events Snow    
Averages and records for this station are not official NWS values.
T = Trace of Precipitation, MM = Missing Value Source: NWS Daily Summary

Daily Weather History Graph

Daily Weather History Graph

Search for Another Location

Airport or City:

Trip Planner

Search our weather history database for the weather conditions in past years. The results will help you decide how hot, cold, wet, or windy it might be!

Date:

Astronomy

Feb. 10, 2013 Rise Set
Actual Time 7:35 AM CST 5:43 PM CST
Civil Twilight 7:03 AM CST 6:14 PM CST
Nautical Twilight 6:28 AM CST 6:50 PM CST
Astronomical Twilight 5:53 AM CST 7:24 PM CST
Moon 7:20 AM CST (2/10) 6:41 PM CST (2/10)
Length of Visible Light 11h 10m
Length of Day
10h 08m
New Moon, 0% of the Moon is Illuminated
Feb 10
New Moon
Feb 17
First Quarter
Feb 25
Full
Mar 4
Last Quarter
Mar 11
New

Hourly Weather History & Observations

Time (CST) Temp. Windchill Dew Point Humidity Pressure Visibility Wind Dir Wind Speed Gust Speed Precip Events Conditions
12:13 AM 30.2 °F 21.9 °F 28.4 °F 93% 29.82 in 2.0 mi ESE 9.2 mph - N/A Snow Light Snow
12:33 AM 30.2 °F 23.4 °F 28.4 °F 93% 29.81 in 1.8 mi ESE 6.9 mph - N/A Snow Light Snow
12:53 AM 30.2 °F 24.3 °F 28.4 °F 93% 29.80 in 1.5 mi East 5.8 mph - N/A Snow Light Snow
1:13 AM 30.2 °F 23.4 °F 28.4 °F 93% 29.78 in 1.5 mi East 6.9 mph - 0.01 in Snow Light Snow
1:33 AM 30.2 °F 23.4 °F 28.4 °F 93% 29.78 in 1.2 mi East 6.9 mph - 0.01 in Snow Light Snow
1:53 AM 30.2 °F 23.4 °F 28.4 °F 93% 29.77 in 1.0 mi East 6.9 mph - 0.02 in Snow Snow
2:13 AM 30.2 °F 23.4 °F 28.4 °F 93% 29.76 in 1.8 mi East 6.9 mph - 0.01 in Snow Light Snow
2:33 AM 30.2 °F 24.3 °F 28.4 °F 93% 29.76 in 2.5 mi ESE 5.8 mph - 0.01 in Snow Light Snow
2:53 AM 30.2 °F 23.4 °F 28.4 °F 93% 29.76 in 2.5 mi ESE 6.9 mph - 0.01 in Snow Light Snow
3:13 AM 30.2 °F 21.9 °F 28.4 °F 93% 29.75 in 3.0 mi ESE 9.2 mph - N/A   Overcast
3:33 AM 30.2 °F 21.3 °F 28.4 °F 93% 29.74 in 5.0 mi ESE 10.4 mph - N/A   Overcast
3:53 AM 30.2 °F 20.8 °F 26.6 °F 86% 29.72 in 10.0 mi ESE 11.5 mph - N/A   Scattered Clouds
4:13 AM 28.4 °F 19.1 °F 26.6 °F 93% 29.70 in 7.0 mi ESE 10.4 mph - N/A   Scattered Clouds
4:33 AM 28.4 °F 19.1 °F 26.6 °F 93% 29.70 in 7.0 mi ESE 10.4 mph - N/A   Scattered Clouds
4:53 AM 28.4 °F 18.5 °F 26.6 °F 93% 29.70 in 7.0 mi ESE 11.5 mph 17.3 mph N/A   Scattered Clouds
5:13 AM 28.4 °F 19.1 °F 26.6 °F 93% 29.69 in 4.0 mi East 10.4 mph 16.1 mph N/A Snow Light Snow
5:33 AM 28.4 °F 19.1 °F 26.6 °F 93% 29.68 in 1.0 mi East 10.4 mph - 0.01 in Snow Light Snow
5:53 AM 28.4 °F 19.1 °F 26.6 °F 93% 29.67 in 1.0 mi East 10.4 mph - 0.02 in Snow Light Snow
6:13 AM 28.4 °F 17.5 °F 26.6 °F 93% 29.66 in 1.5 mi East 13.8 mph - N/A Snow Light Snow
6:33 AM 28.4 °F 18.5 °F 26.6 °F 93% 29.65 in 1.8 mi East 11.5 mph 18.4 mph N/A   Overcast
6:53 AM 28.4 °F 18.0 °F 26.6 °F 93% 29.64 in 3.0 mi East 12.7 mph 17.3 mph N/A   Overcast
7:13 AM 28.4 °F 19.1 °F 26.6 °F 93% 29.64 in 3.0 mi East 10.4 mph 17.3 mph N/A   Scattered Clouds
7:33 AM 28.4 °F 18.0 °F 26.6 °F 93% 29.63 in 1.5 mi East 12.7 mph 21.9 mph N/A Snow Light Snow
7:53 AM 28.4 °F 19.1 °F 26.6 °F 93% 29.63 in 1.0 mi East 10.4 mph 19.6 mph N/A Snow Light Snow
8:13 AM 28.4 °F 18.0 °F 26.6 °F 93% 29.62 in 0.8 mi ENE 12.7 mph - N/A Snow Light Snow
8:33 AM 26.6 °F 16.2 °F 26.6 °F 100% 29.61 in 0.8 mi ENE 11.5 mph 17.3 mph 0.01 in Snow Light Snow
8:53 AM 26.6 °F 16.2 °F 26.6 °F 100% 29.62 in 1.5 mi ENE 11.5 mph 17.3 mph 0.01 in Snow Light Snow
9:13 AM 26.6 °F 15.7 °F 26.6 °F 100% 29.62 in 1.0 mi ENE 12.7 mph 16.1 mph N/A Snow Light Snow
9:33 AM 26.6 °F 15.2 °F 26.6 °F 100% 29.61 in 0.2 mi ENE 13.8 mph - 0.01 in Snow Heavy Snow
9:53 AM 26.6 °F 17.5 °F 26.6 °F 100% 29.59 in 0.2 mi ENE 9.2 mph 16.1 mph 0.02 in Snow Heavy Snow
10:13 AM 26.6 °F 15.2 °F 26.6 °F 100% 29.59 in 0.2 mi ENE 13.8 mph 19.6 mph 0.01 in Snow Snow
10:33 AM 26.6 °F 14.7 °F 26.6 °F 100% 29.58 in 0.2 mi ENE 15.0 mph 20.7 mph 0.02 in Snow Heavy Snow
10:53 AM 26.6 °F 13.4 °F 26.6 °F 100% 29.55 in 0.2 mi ENE 18.4 mph 26.5 mph 0.03 in Snow Snow
11:13 AM 26.6 °F 13.8 °F 24.8 °F 93% 29.52 in 0.2 mi NE 17.3 mph 28.8 mph N/A Snow Heavy Snow
11:33 AM 26.6 °F 14.7 °F 24.8 °F 93% 29.51 in 0.2 mi NE 15.0 mph 28.8 mph 0.01 in Snow Heavy Snow
11:53 AM 26.6 °F 13.4 °F 24.8 °F 93% 29.49 in 0.2 mi ENE 18.4 mph 26.5 mph 0.02 in Snow Heavy Snow
12:13 PM 26.6 °F 12.7 °F 24.8 °F 93% 29.48 in 0.5 mi ENE 20.7 mph 28.8 mph N/A Snow Snow
12:34 PM 26.6 °F 13.4 °F 24.8 °F 93% 29.46 in 0.2 mi ENE 18.4 mph 25.3 mph 0.01 in Snow Snow
12:53 PM 26.6 °F 13.1 °F 24.8 °F 93% 29.45 in 0.2 mi ENE 19.6 mph 25.3 mph 0.02 in Snow Heavy Snow
1:13 PM 26.6 °F 12.7 °F 24.8 °F 93% 29.44 in 0.5 mi ENE 20.7 mph 26.5 mph N/A Snow Light Snow
1:34 PM 26.6 °F 13.1 °F 24.8 °F 93% 29.43 in 0.5 mi ENE 19.6 mph 25.3 mph N/A Snow Light Snow
1:53 PM 26.6 °F 13.8 °F 24.8 °F 93% 29.43 in 0.5 mi ENE 17.3 mph 25.3 mph N/A Snow Snow
2:13 PM 26.6 °F 13.8 °F 24.8 °F 93% 29.42 in 0.2 mi ENE 17.3 mph 25.3 mph N/A Snow Snow
2:33 PM 26.6 °F 14.3 °F 24.8 °F 93% 29.42 in 0.5 mi ENE 16.1 mph 25.3 mph N/A Snow Snow
2:53 PM 26.6 °F 13.8 °F 24.8 °F 93% 29.42 in 0.2 mi ENE 17.3 mph 24.2 mph 0.01 in Snow Snow
3:13 PM 26.6 °F 14.3 °F 24.8 °F 93% 29.42 in 0.2 mi ENE 16.1 mph 20.7 mph N/A Snow Snow
3:33 PM 26.6 °F 15.7 °F 24.8 °F 93% 29.42 in 0.5 mi ENE 12.7 mph 20.7 mph N/A Snow Light Snow
3:53 PM 26.6 °F 16.8 °F 24.8 °F 93% 29.43 in 1.8 mi ENE 10.4 mph 19.6 mph N/A Snow Light Snow
4:13 PM 26.6 °F 15.7 °F 24.8 °F 93% 29.43 in 4.0 mi NE 12.7 mph 20.7 mph N/A   Scattered Clouds
4:33 PM 26.6 °F 16.8 °F 24.8 °F 93% 29.43 in 2.0 mi NE 10.4 mph 19.6 mph N/A Snow Light Snow
4:53 PM 26.6 °F 16.8 °F 24.8 °F 93% 29.44 in 1.5 mi NNE 10.4 mph - N/A Snow Light Snow
5:13 PM 26.6 °F 20.0 °F 24.8 °F 93% 29.44 in 1.8 mi North 5.8 mph - N/A Snow Light Snow
5:33 PM 26.6 °F 19.1 °F 24.8 °F 93% 29.45 in 1.0 mi North 6.9 mph - N/A Snow Light Snow
5:53 PM 26.6 °F 18.2 °F 24.8 °F 93% 29.45 in 1.5 mi North 8.1 mph - N/A Snow Light Snow
6:13 PM 26.6 °F 18.2 °F 24.8 °F 93% 29.46 in 1.2 mi North 8.1 mph - N/A Snow Light Snow
6:33 PM 26.6 °F 18.2 °F 24.8 °F 93% 29.46 in 0.8 mi North 8.1 mph 18.4 mph N/A Snow Snow
6:53 PM 26.6 °F 19.1 °F 24.8 °F 93% 29.47 in 1.0 mi North 6.9 mph - N/A Snow Snow
7:13 PM 26.6 °F 18.2 °F 24.8 °F 93% 29.47 in 0.8 mi North 8.1 mph - N/A Snow Snow
7:33 PM 26.6 °F 17.5 °F 24.8 °F 93% 29.47 in 1.0 mi North 9.2 mph - N/A Snow Light Snow
7:53 PM 26.6 °F 18.2 °F 24.8 °F 93% 29.48 in 1.2 mi North 8.1 mph - N/A Snow Light Snow
8:13 PM 26.6 °F 19.1 °F 24.8 °F 93% 29.48 in 2.0 mi North 6.9 mph - N/A Snow Light Snow
8:33 PM 26.6 °F 17.5 °F 24.8 °F 93% 29.49 in 1.8 mi North 9.2 mph - N/A Snow Light Snow
8:53 PM 26.6 °F 18.2 °F 24.8 °F 93% 29.49 in 2.0 mi North 8.1 mph - N/A Snow Light Snow
9:13 PM 26.6 °F 17.5 °F 23.0 °F 86% 29.49 in 2.0 mi North 9.2 mph 20.7 mph N/A Snow Light Snow
9:33 PM 26.6 °F 16.2 °F 23.0 °F 86% 29.51 in 2.0 mi North 11.5 mph 21.9 mph N/A Snow Light Snow
9:53 PM 24.8 °F 12.4 °F 23.0 °F 93% 29.51 in 1.2 mi North 15.0 mph 27.6 mph N/A Snow Light Snow
10:13 PM 24.8 °F 14.0 °F 23.0 °F 93% 29.52 in 1.0 mi North 11.5 mph 25.3 mph N/A Snow Light Snow
10:33 PM 24.8 °F 14.0 °F 23.0 °F 93% 29.52 in 1.8 mi North 11.5 mph 24.2 mph N/A Snow Light Snow
10:54 PM 24.8 °F 11.9 °F 21.2 °F 86% 29.54 in 1.8 mi North 16.1 mph 27.6 mph N/A Snow Light Snow
11:13 PM 24.8 °F 13.4 °F 23.0 °F 93% 29.54 in 1.5 mi North 12.7 mph 28.8 mph N/A Snow Light Snow
11:33 PM 24.8 °F 11.5 °F 21.2 °F 86% 29.55 in 1.5 mi North 17.3 mph 28.8 mph N/A Snow Light Snow
11:53 PM 24.8 °F 10.0 °F 21.2 °F 86% 29.56 in 1.5 mi North 21.9 mph 34.5 mph N/A Snow Light Snow